Regional Weather Roundup
Issued by NWS Jackson, KY

Home | Current Version | Previous Version | Text Only | Print | Product List | Glossary Off
Versions: 1 2 3 4 5 6 7 8 9 10 11 12 13 14 15 16 17 18 19 20 21 22 23 24 25 26 27 28

000
ASUS43 KJKL 151210
RWRJKL

EAST KENTUCKY HOURLY WEATHER ROUNDUP
NATIONAL WEATHER SERVICE JACKSON KY
700 AM EST FRI DEC 15 2017

NOTE: "FAIR" INDICATES FEW OR NO CLOUDS BELOW 12,000 FEET WITH
NO SIGNIFICANT WEATHER AND/OR OBSTRUCTIONS TO VISIBILITY.

* THESE REPORTS ARE NOT UNDER NWS QUALITY CONTROL AND MAY NOT
  REPORT WEATHER SUCH AS PRECIPITATION AND FOG.

KYZ079-080-083-085-087-088-110-112-115-119-120-151300
...EASTERN KENTUCKY...

CITY           SKY/WX    TMP DP  RH WIND       PRES   REMARKS
JACKSON        CLOUDY    29  22  75 CALM      29.98R
6HR MIN TEMP:  29; 6HR MAX TEMP:  30;

LONDON         CLOUDY    30  22  72 W6        30.01R WCI  24
6HR MIN TEMP:  30; 6HR MAX TEMP:  32;

SOMERSET*      CLOUDY    28  19  69 N5        30.06R WCI  23
MONTICELLO*    CLOUDY    30  22  72 NW6       30.07R WCI  24
6HR MIN TEMP:  30; 6HR MAX TEMP:  32;

WILLIAMSBURG*  CLOUDY    30  25  80 CALM      30.01R
MIDDLESBORO*   CLOUDY    28  26  89 CALM      30.02R
6HR MIN TEMP:  25; 6HR MAX TEMP:  28;

HARLAN APT*    CLOUDY    30  27  86 CALM      29.98S
PIKE CO APT*   CLOUDY    28  22  79 CALM      29.97S
BIG SANDY APT* CLOUDY    28  22  77 CALM      29.99S
6HR MIN TEMP:  28; 6HR MAX TEMP:  29;

MOREHEAD APT*  CLOUDY    25  18  74 CALM      30.03S
$$

KYZ035-036-041-042-044-050-067-078-099-151300
...CENTRAL KENTUCKY...

CITY           SKY/WX    TMP DP  RH WIND       PRES   REMARKS
MT STERLING*   CLOUDY    27  21  80 CALM      30.03S
FLEMING/MASON* MOCLDY    19  17  93 W5        30.04S WCI  12
DANVILLE*      CLOUDY    28  19  69 W3        30.05R
LEXINGTON      CLOUDY    25  19  78 CALM      30.03R
6HR MIN TEMP:  25; 6HR MAX TEMP:  26;

FRANKFORT      CLOUDY    26  18  71 SW6       30.03R WCI  19
6HR MIN TEMP:  23; 6HR MAX TEMP:  27;

LOUISVILLE     CLOUDY    30  19  63 SW7       30.07R WCI  23
6HR MIN TEMP:  28; 6HR MAX TEMP:  30;

LEBANON*       CLOUDY    28  21  74 CALM      30.06R
GLASGOW*       CLOUDY    30  24  77 W3        30.07S
BOWLING GREEN  CLOUDY    31  21  66 W6        30.09R WCI  25
6HR MIN TEMP:  31; 6HR MAX TEMP:  32;

$$

KYZ091>093-OHZ055-061-077-WVZ005-015-034-035-042-151300
...SOUTHERN OHIO/WEST VIRGINIA...

CITY           SKY/WX    TMP DP  RH WIND       PRES   REMARKS
COVINGTON      PTCLDY    19  17  92 CALM      30.02S
COLUMBUS       CLOUDY    21  15  78 S3        30.01F
DAYTON         CLOUDY    20  17  88 SW7       30.00S WCI  11
WILMINGTON     PTCLDY    18  17  96 SW3       29.99F
HUNTINGTON     CLOUDY    25  18  74 CALM      30.01S
CHARLESTON     CLOUDY    29  19  66 CALM      29.99S
PINEVILLE*     CLOUDY    31  24  75 MISG      29.99S
BECKLEY        CLOUDY    28  21  75 CALM      29.91R
BLUEFIELD      CLOUDY    25  19  78 VRB3      29.91R
LOGAN CO APT*  CLOUDY    28  23  80 CALM      29.95S
$$

VAZ002-007-008-TNZ017-027-036-066-071-151300
...SOUTHWEST VIRGINIA/EAST TENNESSEE...

CITY           SKY/WX    TMP DP  RH WIND       PRES   REMARKS
WISE*          CLOUDY    30  27  86 SW7       29.91S WCI  23
JONESVILLE*    CLOUDY    30  28  93 CALM      30.00S
ABINGDON*      CLOUDY    24  22  93 CALM      29.95R
BRISTOL        CLOUDY    21  20  96 CALM      29.98S
MORRISTOWN*    CLOUDY    32  27  80 W3        29.98S
SEVIERVILLE*   CLOUDY    25  23  93 CALM      30.01S
KNOXVILLE      CLOUDY    29  28  96 CALM      30.01S
LAFOLLETTE*    CLOUDY    34  23  64 CALM      30.04R
OAK RIDGE      CLOUDY    33  27  78 CALM      30.03R
CROSSVILLE     CLOUDY    26  22  84 W7        30.00R WCI  18
NASHVILLE      CLOUDY    33  20  58 NW9       30.11R WCI  25
$$

...KEY TO REMARKS...
VSB - VISIBILITY IN MILES
WCI - WIND CHILL INDEX
HX  - HEAT INDEX

$$




USA.gov is the U.S. government's official web portal to all federal, state and local government web resources and services.